[[{"header":{"parameterUnit":"m.s-1","parameterCategory":1,"la1":30.2991,"la2":30.254,"lo1":-89.0895,"lo2":-89.0444,"dy":0.0017,"dx":0.0017,"nx":28,"ny":28,"refTime":"2025-08-19T21:00:00:Z","depth":0,"parameterNumber":2,"parameterNumberName":"U-component_of_WINDS"},"data":[0,0,0,0,0,0,0,0,0,0,0,0,0,0,0,0,0,0,0,0,0,0,0,0,0,0,0,0,0,0,0,0,0,0,0,0,0,0,0,0,0,0,0,0,0,0,0,0,0,0,0,0,0,0,0,0,0,0,0.9679,0.968,0,0.9703,0.9703,0.9703,0.9695,0.9694,0.9694,0.9693,0.9716,0.9718,0.9719,0,0,0,0,0,0,0,0,0,0,0,0,0,0.9624,0.9625,0.9679,0.968,0.968,0.9703,0.9703,0.9704,0.9695,0.9694,0.9694,0.9693,0.9716,0.9717,0.9719,0,0,0,0,0,0,0,0,0,0,0,0,0,0.9648,0.9626,0.9679,0.9678,0.9679,0.9703,0.9703,0.9704,0.9695,0.9694,0.9693,0.9693,0.9716,0.9717,0.9719,0.9745,0,0,0.9724,0.9725,0,0,0,0,0,0,0,0,0.9647,0.965,0.9678,0.9678,0.9679,0.9695,0.9692,0.9718,0.9695,0.9689,0.9693,0.9692,0.971,0.9712,0.9718,0.9746,0.9747,0.9724,0.9725,0.9726,0.9726,0,0,0,0,0,0,0,0.9645,0.9649,0.9689,0.9679,0.9679,0.9676,0.9679,0.9697,0.9703,0.9689,0.9689,0.9692,0.971,0.9717,0.9719,0.9748,0.9724,0.9726,0.9727,0.9727,0.9796,0.9797,0,0,0,0,0,0,0.9644,0.9648,0.9688,0.9689,0.966,0.9678,0.968,0.9691,0.9703,0.9704,0.9692,0.9691,0.9714,0.9717,0.9719,0.9749,0.9726,0.9727,0.9728,0.9795,0.9796,0.9797,0,0,0,0,0,0,0.9642,0.9647,0.9687,0.9668,0.9673,0.968,0.9691,0.9692,0.9698,0.9706,0.9707,0.9698,0.9714,0.9717,0.9738,0.975,0.9728,0.973,0.9794,0.9796,0.9797,0.9811,0,0,0,0,0,0,0.9641,0.9647,0.9658,0.9669,0.9674,0.9706,0.9692,0.9693,0.9701,0.97,0.9711,0.9712,0.9713,0.9736,0.974,0.9752,0.9731,0.9793,0.9795,0.9796,0.9809,0.9812,0.9815,0,0,0,0,0,0.9639,0.9661,0.9658,0.9663,0.9688,0.9707,0.971,0.9711,0.9702,0.9712,0.9717,0.9712,0.9748,0.9738,0.9743,0.9755,0.9792,0.9794,0.9796,0.9808,0.9812,0.9815,0,0,0,0,0,0,0.9651,0.9662,0.966,0.9686,0.9695,0.9705,0.9718,0.9715,0.9727,0.9725,0.9726,0.9728,0.975,0.9755,0.9743,0.978,0.9769,0.9772,0.9776,0.978,0.9783,0.9781,0.9732,0,0,0,0,0,0.9657,0.9672,0.9681,0.9703,0.9708,0.9712,0.9721,0.972,0.973,0.9734,0.974,0.975,0.9763,0.9772,0.9785,0.981,0.9811,0.9821,0.9824,0.9826,0.9828,0.984,0.9844,0.9803,0.9803,0.9803,0,0,0.9669,0.9677,0.9686,0.9705,0.9713,0.9727,0.9716,0.9732,0.9743,0.9737,0.9757,0.9762,0.9772,0.9795,0.9805,0.98,0.984,0.9828,0.983,0.9831,0.9842,0.9846,0.9849,0.9805,0.9804,0.9804,0,0,0.9697,0.9706,0.9724,0.9732,0.9743,0.9746,0.975,0.976,0.9763,0.9783,0.9778,0.9791,0.9814,0.9821,0.9828,0.9858,0.9853,0.9862,0.9877,0.9888,0.9891,0.9894,0.9903,0.9907,0.9864,0.9864,0.9865,0,0.9711,0.9733,0.9734,0.975,0.9758,0.9753,0.9771,0.9778,0.9793,0.9798,0.9792,0.982,0.9827,0.9851,0.9858,0.9864,0.9868,0.986,0.9891,0.9894,0.9896,0.9905,0.9909,0.9865,0.9865,0.9865,0.9865,0,0.9748,0.9763,0.9777,0.9791,0.98,0.9818,0.982,0.9829,0.9828,0.9831,0.9851,0.9858,0.9872,0.9878,0.9877,0.9901,0.9897,0.9891,0.9879,0.9901,0.9909,0.9913,0.9867,0.9866,0.9866,0.9866,0,0,0.9785,0.9799,0.9804,0.9809,0.982,0.9832,0.9848,0.9862,0.9869,0.9879,0.9892,0.9911,0.9905,0.9913,0.9912,0.9923,0.9944,0.9915,0.9915,0.9919,0.9968,0.9972,0.9976,0.9941,0.9942,0.9942,0.9967,0,0.9814,0.9843,0.9843,0.9869,0.9882,0.9877,0.9891,0.9899,0.9902,0.9913,0.9916,0.9929,0.9921,0.9925,0.9936,0.9939,0.9953,0.9937,0.9952,0.9952,0.9948,0.998,0.9985,1.0008,0.997,0.9971,0.9971,0,0.9851,0.9862,0.9889,0.9897,0.9903,0.9915,0.9926,0.9937,0.9946,0.9947,0.9955,0.9953,0.9968,0.9956,0.9977,0.9966,0.9972,0.9974,0.9975,0.9975,0.9962,0.998,1.0015,1.0018,0.9977,0.9976,0.9976,0,0.9874,0.9895,0.9914,0.9919,0.9929,0.9937,0.9942,0.995,0.9957,0.9967,0.9971,0.9983,0.9989,0.9997,0.9998,0.9989,1.0017,1.0006,1.0018,1.0018,1.0023,1.0023,1.0058,1.0029,1.0029,1.0029,1.0029,0,0.9905,0.9921,0.9923,0.9935,0.9952,0.9953,0.997,0.9974,0.998,0.9991,0.9988,0.9998,0.9999,1.0009,1.001,1.0026,1.0029,1.0029,1.0029,1.0029,1.0029,1.0032,1.003,1.003,1.003,1.003,1.003,0,0.9933,0.9935,0.9955,0.9962,0.9965,0.9977,0.9983,0.9993,0.9996,1.001,1.0013,1.0016,1.0028,1.003,1.0044,1.0044,1.0063,1.0061,1.006,1.0059,1.007,1.0068,1.0108,1.0113,1.0082,1.0082,1.0082,0,0.9952,0.9964,0.9973,0.998,0.9985,0.9997,1.0004,1.0004,1.0012,1.0021,1.003,1.0041,1.0051,1.007,1.0073,1.0083,1.0082,1.0095,1.0083,1.0082,1.008,1.0079,1.0079,1.0097,1.0097,1.0097,1.0097,0,0.9985,0.9985,0.9996,1.0007,1.0015,1.0023,1.0031,1.0037,1.0038,1.0047,1.0059,1.0066,1.008,1.0091,1.0101,1.0105,1.0101,1.0101,1.0104,1.0104,1.0101,1.0101,1.0064,1.01,1.01,1.01,1.0099,1.0099,1.0008,1.0018,1.0026,1.0037,1.0043,1.005,1.0059,1.0062,1.0072,1.0083,1.0083,1.0096,1.0102,1.0115,1.012,1.0129,1.0125,1.013,1.0131,1.0131,1.0132,1.0101,1.0131,1.0131,1.0131,1.0131,1.0131,0,1.004,1.0044,1.0055,1.0065,1.0074,1.007,1.0078,1.0085,1.0096,1.0103,1.0112,1.0125,1.0135,1.0139,1.0149,1.0156,1.0154,1.0158,1.0157,1.0158,1.0136,1.0132,1.0159,1.0159,1.0159,1.0159,1.0159,1.0159,1.0058,1.0074,1.0074,1.0093,1.0097,1.0109,1.0114,1.012,1.0125,1.0139,1.0148,1.015,1.0155,1.0165,1.0174,1.0175,1.0178,1.0183,1.0183,1.0162,1.0159,1.0157,1.0153,1.0184,1.0184,1.0203,1.0203,1.0204]},{"header":{"parameterUnit":"m.s-1","parameterCategory":1,"la1":30.2991,"la2":30.254,"lo1":-89.0895,"lo2":-89.0444,"dy":0.0017,"dx":0.0017,"nx":28,"ny":28,"refTime":"2025-08-19T21:00:00:Z","depth":0,"parameterNumber":3,"parameterNumberName":"V-component_of_WINDS"},"data":[0,0,0,0,0,0,0,0,0,0,0,0,0,0,0,0,0,0,0,0,0,0,0,0,0,0,0,0,0,0,0,0,0,0,0,0,0,0,0,0,0,0,0,0,0,0,0,0,0,0,0,0,0,0,0,0,0,0,-0.1135,-0.1135,0,-0.1188,-0.1189,-0.119,-0.1225,-0.1225,-0.1225,-0.1225,-0.1282,-0.1283,-0.1285,0,0,0,0,0,0,0,0,0,0,0,0,0,-0.1065,-0.1066,-0.1135,-0.1135,-0.1136,-0.1188,-0.1189,-0.119,-0.1225,-0.1225,-0.1225,-0.1225,-0.1282,-0.1283,-0.1285,0,0,0,0,0,0,0,0,0,0,0,0,0,-0.1105,-0.1066,-0.1135,-0.116,-0.1162,-0.1188,-0.1189,-0.119,-0.1224,-0.1225,-0.1225,-0.1225,-0.1281,-0.1283,-0.1285,-0.1291,0,0,-0.1291,-0.1292,0,0,0,0,0,0,0,0,-0.1102,-0.1107,-0.1155,-0.1158,-0.1161,-0.12,-0.1185,-0.1224,-0.1224,-0.1201,-0.1225,-0.1226,-0.1255,-0.1259,-0.1268,-0.1293,-0.1296,-0.1291,-0.1292,-0.1293,-0.1294,0,0,0,0,0,0,0,-0.11,-0.1105,-0.1156,-0.1156,-0.116,-0.1169,-0.1175,-0.1193,-0.1225,-0.1203,-0.1206,-0.1211,-0.1256,-0.1266,-0.127,-0.1297,-0.1291,-0.1293,-0.1294,-0.1295,-0.133,-0.133,0,0,0,0,0,0,-0.1093,-0.1103,-0.1154,-0.1158,-0.1132,-0.117,-0.1177,-0.1187,-0.1225,-0.1231,-0.1211,-0.1213,-0.1263,-0.1268,-0.1272,-0.1282,-0.1293,-0.1295,-0.1296,-0.1331,-0.133,-0.133,0,0,0,0,0,0,-0.1091,-0.1097,-0.1152,-0.1131,-0.1139,-0.1171,-0.1182,-0.1188,-0.1198,-0.1231,-0.1238,-0.1215,-0.1263,-0.1269,-0.1286,-0.1284,-0.1296,-0.1298,-0.1331,-0.133,-0.133,-0.1301,0,0,0,0,0,0,-0.1089,-0.1096,-0.1098,-0.1131,-0.114,-0.1164,-0.1182,-0.1189,-0.1201,-0.1204,-0.1237,-0.1243,-0.1264,-0.1283,-0.1288,-0.1287,-0.1299,-0.1331,-0.1331,-0.133,-0.1302,-0.13,-0.1297,0,0,0,0,0,-0.1086,-0.1088,-0.1098,-0.1104,-0.1142,-0.1164,-0.1169,-0.1193,-0.1201,-0.1203,-0.1225,-0.1242,-0.1284,-0.1284,-0.129,-0.129,-0.1331,-0.1331,-0.133,-0.1303,-0.13,-0.1297,0,0,0,0,0,0,-0.1054,-0.1092,-0.1104,-0.1116,-0.1136,-0.117,-0.1174,-0.1189,-0.1208,-0.121,-0.124,-0.1247,-0.1261,-0.1277,-0.1277,-0.1298,-0.131,-0.131,-0.1287,-0.1284,-0.1282,-0.1278,-0.1301,0,0,0,0,0,-0.1049,-0.1062,-0.1095,-0.1103,-0.1112,-0.1141,-0.1152,-0.1168,-0.1191,-0.12,-0.1223,-0.1245,-0.1263,-0.1275,-0.1293,-0.1305,-0.1313,-0.1308,-0.1305,-0.1303,-0.1303,-0.1312,-0.131,-0.1328,-0.1328,-0.1328,0,0,-0.1037,-0.106,-0.1067,-0.1097,-0.1115,-0.1129,-0.1148,-0.1162,-0.1174,-0.1202,-0.1219,-0.1237,-0.1264,-0.1278,-0.1285,-0.1292,-0.13,-0.1302,-0.13,-0.1302,-0.1311,-0.1309,-0.1308,-0.1328,-0.1328,-0.1328,0,0,-0.1024,-0.1042,-0.105,-0.1068,-0.1095,-0.1114,-0.1116,-0.1147,-0.116,-0.1177,-0.1199,-0.1213,-0.1244,-0.1262,-0.1276,-0.127,-0.1286,-0.1275,-0.1263,-0.127,-0.1269,-0.1268,-0.1267,-0.1266,-0.1275,-0.1275,-0.1275,0,-0.1007,-0.1028,-0.1053,-0.1066,-0.1079,-0.1105,-0.1115,-0.1131,-0.1162,-0.1171,-0.1178,-0.1217,-0.1237,-0.1257,-0.1255,-0.1265,-0.1269,-0.1272,-0.1267,-0.1266,-0.1266,-0.1265,-0.1264,-0.1274,-0.1274,-0.1274,-0.1274,0,-0.1006,-0.1021,-0.1025,-0.1054,-0.1068,-0.1079,-0.1106,-0.1117,-0.1133,-0.1151,-0.117,-0.1194,-0.1219,-0.1224,-0.124,-0.1246,-0.125,-0.1261,-0.1273,-0.1262,-0.1262,-0.1261,-0.1272,-0.1272,-0.1273,-0.1273,0,0,-0.0974,-0.1017,-0.1018,-0.1032,-0.1064,-0.1076,-0.1089,-0.1112,-0.1121,-0.1142,-0.1154,-0.118,-0.1191,-0.1206,-0.1224,-0.1231,-0.1226,-0.1242,-0.1243,-0.1239,-0.1235,-0.1226,-0.1225,-0.1237,-0.1237,-0.1237,-0.1233,0,-0.0966,-0.0989,-0.1012,-0.1028,-0.1043,-0.1068,-0.1079,-0.11,-0.1118,-0.1134,-0.1155,-0.1172,-0.1185,-0.1195,-0.1202,-0.1225,-0.1225,-0.1225,-0.1249,-0.125,-0.1242,-0.1225,-0.1216,-0.1211,-0.1233,-0.1233,-0.1233,0,-0.0959,-0.0979,-0.0996,-0.1026,-0.1033,-0.1043,-0.1067,-0.1081,-0.1106,-0.1119,-0.1135,-0.1155,-0.117,-0.118,-0.1203,-0.1203,-0.1214,-0.1226,-0.1227,-0.123,-0.1241,-0.1229,-0.1211,-0.121,-0.1233,-0.1233,-0.1233,0,-0.0935,-0.0966,-0.098,-0.0991,-0.1027,-0.1033,-0.1049,-0.1074,-0.1086,-0.1107,-0.1116,-0.1139,-0.1151,-0.1169,-0.1194,-0.1199,-0.1215,-0.1227,-0.1227,-0.1226,-0.1229,-0.1228,-0.1213,-0.1235,-0.1235,-0.1235,-0.1235,0,-0.0924,-0.0933,-0.0969,-0.0978,-0.099,-0.1017,-0.1028,-0.1046,-0.1068,-0.1082,-0.1105,-0.1117,-0.1149,-0.1166,-0.1186,-0.1202,-0.1207,-0.1219,-0.1224,-0.1217,-0.1216,-0.1225,-0.1226,-0.1235,-0.1235,-0.1235,-0.1235,0,-0.0899,-0.0923,-0.0941,-0.0973,-0.0982,-0.0989,-0.1017,-0.1027,-0.1047,-0.1064,-0.1069,-0.11,-0.1121,-0.1147,-0.1177,-0.119,-0.1204,-0.1212,-0.1196,-0.1199,-0.1197,-0.1197,-0.1188,-0.1188,-0.1209,-0.1209,-0.1209,0,-0.089,-0.0898,-0.0931,-0.0942,-0.0956,-0.0973,-0.0986,-0.1013,-0.1026,-0.1055,-0.1062,-0.1084,-0.1103,-0.1135,-0.1161,-0.1184,-0.1192,-0.1187,-0.1196,-0.1189,-0.1193,-0.1193,-0.1194,-0.1185,-0.1185,-0.1185,-0.1184,0,-0.0872,-0.0884,-0.0902,-0.0924,-0.0939,-0.0957,-0.0977,-0.0985,-0.1016,-0.1029,-0.105,-0.1065,-0.1095,-0.1117,-0.1143,-0.1161,-0.1178,-0.1181,-0.1183,-0.1176,-0.1166,-0.1172,-0.119,-0.1182,-0.1182,-0.1182,-0.1182,-0.1182,-0.0856,-0.0864,-0.0889,-0.0908,-0.0926,-0.0944,-0.0955,-0.0976,-0.0994,-0.102,-0.1035,-0.1056,-0.1081,-0.1118,-0.1134,-0.1152,-0.1158,-0.116,-0.1161,-0.1161,-0.1159,-0.1163,-0.1156,-0.1157,-0.1157,-0.1157,-0.1157,0,-0.084,-0.0857,-0.0875,-0.0901,-0.0917,-0.0931,-0.0954,-0.0966,-0.0984,-0.1006,-0.1024,-0.1049,-0.1071,-0.1098,-0.1122,-0.113,-0.1139,-0.1136,-0.1136,-0.114,-0.1151,-0.1148,-0.1129,-0.1129,-0.1129,-0.1129,-0.1129,-0.1129,-0.0834,-0.0849,-0.0864,-0.0888,-0.0906,-0.0926,-0.0938,-0.0955,-0.0973,-0.0999,-0.1017,-0.1034,-0.1059,-0.1085,-0.1106,-0.1114,-0.1122,-0.1116,-0.1126,-0.1136,-0.1139,-0.1141,-0.1138,-0.1117,-0.1117,-0.1114,-0.1113,-0.1113]}]]